| time (UTC) | temp F | wind direction | speed MPH | gust MPH | rain 1hr in | rain 24hr in | rain mn in | humidity % | barometer mb |
| 20260504130337 | 64 | 169 | 6.0 | 11.0 | 0.00 | 0.00 | 0.00 | 70 | 1014.0 |
| 20260504120300 | 62 | 222 | 4.0 | 8.0 | 0.00 | 0.00 | 0.00 | 70 | 1013.9 |
| 20260504110224 | 62 | 148 | 3.0 | 5.0 | 0.00 | 0.00 | 0.00 | 72 | 1013.6 |
| 20260504100148 | 63 | 201 | 7.0 | 13.0 | 0.00 | 0.00 | 0.00 | 67 | 1013.8 |
| 20260504090110 | 64 | 234 | 5.0 | 13.0 | 0.00 | 0.00 | 0.00 | 61 | 1014.1 |
| 20260504081540 | 64 | 187 | 5.0 | 6.0 | 0.00 | 0.00 | 0.00 | 58 | 1014.5 |
| 20260504081036 | 65 | 226 | 1.0 | 9.0 | 0.00 | 0.00 | 0.00 | 58 | 1014.6 |
| 20260504080533 | 65 | 174 | 7.0 | 8.0 | 0.00 | 0.00 | 0.00 | 58 | 1014.4 |
| 20260504050346 | 67 | 200 | 1.0 | 4.0 | 0.00 | 0.00 | 0.00 | 52 | 1016.6 |
| 20260504045843 | 67 | 181 | 6.0 | 6.0 | 0.00 | 0.00 | 0.00 | 51 | 1016.5 |
| 20260504045338 | 68 | 185 | 3.0 | 9.0 | 0.00 | 0.00 | 0.00 | 51 | 1016.6 |
| 20260504044835 | 67 | 173 | 1.0 | 5.0 | 0.00 | 0.00 | 0.00 | 52 | 1016.6 |
| 20260504044333 | 67 | 183 | 3.0 | 5.0 | 0.00 | 0.00 | 0.00 | 52 | 1016.7 |
| 20260504043830 | 67 | 200 | 3.0 | 5.0 | 0.00 | 0.00 | 0.00 | 52 | 1016.8 |
| 20260504043326 | 67 | 192 | 4.0 | 5.0 | 0.00 | 0.00 | 0.00 | 53 | 1016.9 |
| 20260504042823 | 67 | 156 | 3.0 | 5.0 | 0.00 | 0.00 | 0.00 | 54 | 1016.7 |
| 20260504042320 | 67 | 180 | 3.0 | 3.0 | 0.00 | 0.00 | 0.00 | 53 | 1016.9 |
| 20260504041816 | 67 | 188 | 3.0 | 6.0 | 0.00 | 0.00 | 0.00 | 53 | 1016.8 |
| 20260504041312 | 67 | 120 | 2.0 | 5.0 | 0.00 | 0.00 | 0.00 | 52 | 1017.0 |
| 20260504040809 | 67 | 145 | 3.0 | 6.0 | 0.00 | 0.00 | 0.00 | 53 | 1016.9 |
| 20260504040306 | 68 | 183 | 4.0 | 5.0 | 0.00 | 0.00 | 0.00 | 53 | 1017.0 |
| 20260504035802 | 68 | 193 | 0.0 | 5.0 | 0.00 | 0.00 | 0.00 | 52 | 1017.1 |
| 20260504035259 | 68 | 216 | 2.0 | 4.0 | 0.00 | 0.00 | 0.00 | 52 | 1016.9 |
| 20260504034756 | 68 | 174 | 2.0 | 4.0 | 0.00 | 0.00 | 0.00 | 52 | 1017.1 |
| 20260504034254 | 68 | 176 | 3.0 | 5.0 | 0.00 | 0.00 | 0.00 | 51 | 1016.9 |
| 20260504033751 | 68 | 121 | 1.0 | 4.0 | 0.00 | 0.00 | 0.00 | 50 | 1017.0 |
| 20260504033249 | 69 | 190 | 3.0 | 7.0 | 0.00 | 0.00 | 0.00 | 50 | 1016.9 |
| 20260504032745 | 69 | 164 | 3.0 | 7.0 | 0.00 | 0.00 | 0.00 | 50 | 1016.9 |
| 20260504032242 | 69 | 156 | 2.0 | 5.0 | 0.00 | 0.00 | 0.00 | 49 | 1016.8 |
| 20260504031739 | 69 | 155 | 2.0 | 5.0 | 0.00 | 0.00 | 0.00 | 49 | 1016.7 |
| 20260504031237 | 69 | 163 | 3.0 | 5.0 | 0.00 | 0.00 | 0.00 | 48 | 1016.8 |
| 20260504030732 | 69 | 180 | 2.0 | 5.0 | 0.00 | 0.00 | 0.00 | 47 | 1016.8 |
| 20260504030230 | 69 | 207 | 4.0 | 5.0 | 0.00 | 0.00 | 0.00 | 47 | 1016.9 |
| 20260504025726 | 69 | 220 | 2.0 | 4.0 | 0.00 | 0.00 | 0.00 | 47 | 1016.8 |
| 20260504025223 | 69 | 180 | 2.0 | 4.0 | 0.00 | 0.00 | 0.00 | 45 | 1016.7 |
| 20260504024715 | 70 | 186 | 3.0 | 5.0 | 0.00 | 0.00 | 0.00 | 44 | 1016.7 |
| 20260504024211 | 70 | 184 | 3.0 | 7.0 | 0.00 | 0.00 | 0.00 | 43 | 1016.6 |
| 20260504023708 | 70 | 180 | 1.0 | 5.0 | 0.00 | 0.00 | 0.00 | 43 | 1016.8 |
| 20260504023204 | 71 | 105 | 2.0 | 5.0 | 0.00 | 0.00 | 0.00 | 43 | 1016.8 |
| 20260504022701 | 70 | 184 | 4.0 | 8.0 | 0.00 | 0.00 | 0.00 | 43 | 1016.8 |
| 20260504022157 | 71 | 180 | 1.0 | 5.0 | 0.00 | 0.00 | 0.00 | 42 | 1016.6 |
| 20260504021655 | 71 | 202 | 5.0 | 6.0 | 0.00 | 0.00 | 0.00 | 42 | 1016.5 |
| 20260504021151 | 71 | 192 | 4.0 | 8.0 | 0.00 | 0.00 | 0.00 | 42 | 1016.6 |
| 20260504020648 | 71 | 154 | 2.0 | 9.0 | 0.00 | 0.00 | 0.00 | 42 | 1016.7 |
| 20260504020144 | 71 | 97 | 3.0 | 5.0 | 0.00 | 0.00 | 0.00 | 41 | 1016.7 |
| 20260504015641 | 72 | 209 | 3.0 | 6.0 | 0.00 | 0.00 | 0.00 | 41 | 1016.7 |
| 20260504015137 | 72 | 214 | 3.0 | 9.0 | 0.00 | 0.00 | 0.00 | 41 | 1016.2 |
| 20260504014633 | 72 | 176 | 2.0 | 7.0 | 0.00 | 0.00 | 0.00 | 41 | 1016.3 |
| 20260504014130 | 72 | 201 | 3.0 | 5.0 | 0.00 | 0.00 | 0.00 | 41 | 1016.3 |
| 20260504013628 | 72 | 190 | 2.0 | 5.0 | 0.00 | 0.00 | 0.00 | 41 | 1016.5 |
| 20260504013124 | 72 | 190 | 5.0 | 6.0 | 0.00 | 0.00 | 0.00 | 40 | 1016.3 |
| 20260504012621 | 72 | 192 | 6.0 | 7.0 | 0.00 | 0.00 | 0.00 | 40 | 1016.5 |
| 20260504012119 | 73 | 175 | 2.0 | 7.0 | 0.00 | 0.00 | 0.00 | 40 | 1016.3 |
| 20260504011616 | 73 | 200 | 1.0 | 6.0 | 0.00 | 0.00 | 0.00 | 40 | 1016.2 |
| 20260504011113 | 73 | 204 | 3.0 | 5.0 | 0.00 | 0.00 | 0.00 | 39 | 1016.2 |
| 20260504010609 | 73 | 170 | 4.0 | 6.0 | 0.00 | 0.00 | 0.00 | 39 | 1016.3 |
| 20260504010105 | 73 | 184 | 2.0 | 6.0 | 0.00 | 0.00 | 0.00 | 38 | 1016.2 |
| 20260504005602 | 74 | 181 | 3.0 | 6.0 | 0.00 | 0.00 | 0.00 | 37 | 1015.9 |
| 20260504005059 | 74 | 136 | 3.0 | 7.0 | 0.00 | 0.00 | 0.00 | 37 | 1016.1 |
| 20260504004557 | 75 | 188 | 5.0 | 5.0 | 0.00 | 0.00 | 0.00 | 37 | 1016.1 |
| 20260504004054 | 76 | 53 | 2.0 | 3.0 | 0.00 | 0.00 | 0.00 | 36 | 1016.1 |
| 20260504003549 | 76 | 153 | 4.0 | 9.0 | 0.00 | 0.00 | 0.00 | 35 | 1016.0 |
| 20260504003046 | 77 | 204 | 4.0 | 7.0 | 0.00 | 0.00 | 0.00 | 35 | 1016.2 |
| 20260504002543 | 77 | 180 | 0.0 | 5.0 | 0.00 | 0.00 | 0.00 | 34 | 1016.0 |
| 20260504002041 | 78 | 354 | 1.0 | 9.0 | 0.00 | 0.00 | 0.00 | 34 | 1016.1 |
| 20260504001538 | 78 | 192 | 6.0 | 7.0 | 0.00 | 0.00 | 0.00 | 34 | 1016.2 |
| 20260504001034 | 78 | 186 | 7.0 | 9.0 | 0.00 | 0.00 | 0.00 | 33 | 1016.3 |
| 20260504000532 | 79 | 36 | 0.0 | 6.0 | 0.00 | 0.00 | 0.00 | 34 | 1016.5 |
| 20260504000029 | 79 | 180 | 7.0 | 9.0 | 0.00 | 0.00 | 0.00 | 33 | 1016.3 |
| 20260503235527 | 79 | 161 | 4.0 | 7.0 | 0.00 | 0.00 | 0.00 | 33 | 1016.5 |
| 20260503235024 | 79 | 211 | 3.0 | 6.0 | 0.00 | 0.00 | 0.00 | 33 | 1016.5 |
| 20260503234521 | 79 | 192 | 4.0 | 6.0 | 0.00 | 0.00 | 0.00 | 32 | 1016.6 |
| 20260503234020 | 79 | 195 | 3.0 | 9.0 | 0.00 | 0.00 | 0.00 | 32 | 1016.6 |
| 20260503233515 | 80 | 226 | 6.0 | 13.0 | 0.00 | 0.00 | 0.00 | 31 | 1016.6 |
| 20260503233011 | 79 | 195 | 10.0 | 11.0 | 0.00 | 0.00 | 0.00 | 32 | 1016.5 |
| 20260503232508 | 80 | 177 | 3.0 | 8.0 | 0.00 | 0.00 | 0.00 | 32 | 1016.7 |
| 20260503232006 | 80 | 264 | 3.0 | 11.0 | 0.00 | 0.00 | 0.00 | 32 | 1016.6 |
| 20260503231503 | 80 | 162 | 3.0 | 11.0 | 0.00 | 0.00 | 0.00 | 32 | 1016.7 |
| 20260503231000 | 81 | 204 | 5.0 | 8.0 | 0.00 | 0.00 | 0.00 | 30 | 1016.7 |
| 20260503230456 | 82 | 199 | 4.0 | 7.0 | 0.00 | 0.00 | 0.00 | 29 | 1016.7 |
| 20260503225954 | 81 | 230 | 6.0 | 12.0 | 0.00 | 0.00 | 0.00 | 29 | 1016.9 |
| 20260503225451 | 81 | 180 | 6.0 | 11.0 | 0.00 | 0.00 | 0.00 | 29 | 1016.9 |
| 20260503224946 | 81 | 227 | 8.0 | 15.0 | 0.00 | 0.00 | 0.00 | 30 | 1016.8 |
| 20260503224443 | 81 | 251 | 4.0 | 14.0 | 0.00 | 0.00 | 0.00 | 30 | 1016.8 |
| 20260503223941 | 82 | 243 | 8.0 | 10.0 | 0.00 | 0.00 | 0.00 | 29 | 1017.0 |
| 20260503223439 | 81 | 199 | 7.0 | 12.0 | 0.00 | 0.00 | 0.00 | 29 | 1017.1 |
| 20260503222934 | 82 | 240 | 3.0 | 6.0 | 0.00 | 0.00 | 0.00 | 30 | 1016.9 |
| 20260503222433 | 81 | 162 | 5.0 | 12.0 | 0.00 | 0.00 | 0.00 | 30 | 1017.2 |
| 20260503221931 | 81 | 206 | 6.0 | 9.0 | 0.00 | 0.00 | 0.00 | 28 | 1017.2 |
| 20260503221429 | 82 | 213 | 6.0 | 16.0 | 0.00 | 0.00 | 0.00 | 28 | 1017.3 |
| 20260503220925 | 82 | 172 | 3.0 | 7.0 | 0.00 | 0.00 | 0.00 | 29 | 1017.4 |
| 20260503220421 | 82 | 207 | 5.0 | 10.0 | 0.00 | 0.00 | 0.00 | 28 | 1017.3 |
| 20260503215919 | 82 | 230 | 6.0 | 8.0 | 0.00 | 0.00 | 0.00 | 30 | 1017.2 |
| 20260503215416 | 81 | 148 | 5.0 | 10.0 | 0.00 | 0.00 | 0.00 | 30 | 1017.4 |
| 20260503214913 | 81 | 226 | 7.0 | 14.0 | 0.00 | 0.00 | 0.00 | 27 | 1017.6 |
| 20260503214410 | 81 | 218 | 7.0 | 17.0 | 0.00 | 0.00 | 0.00 | 28 | 1017.5 |
| 20260503213908 | 81 | 211 | 2.0 | 7.0 | 0.00 | 0.00 | 0.00 | 31 | 1017.7 |
| 20260503213406 | 81 | 243 | 5.0 | 16.0 | 0.00 | 0.00 | 0.00 | 29 | 1017.6 |
| 20260503212902 | 81 | 218 | 10.0 | 12.0 | 0.00 | 0.00 | 0.00 | 30 | 1017.8 |
| 20260503212400 | 82 | 183 | 6.0 | 17.0 | 0.00 | 0.00 | 0.00 | 30 | 1017.7 |
| 20260503211857 | 81 | 205 | 4.0 | 9.0 | 0.00 | 0.00 | 0.00 | 32 | 1017.7 |
| 20260503211354 | 82 | 232 | 9.0 | 11.0 | 0.00 | 0.00 | 0.00 | 30 | 1018.0 |
| 20260503210848 | 82 | 187 | 5.0 | 11.0 | 0.00 | 0.00 | 0.00 | 31 | 1018.1 |
| 20260503210346 | 81 | 221 | 3.0 | 8.0 | 0.00 | 0.00 | 0.00 | 32 | 1018.2 |
| 20260503205841 | 82 | 232 | 6.0 | 10.0 | 0.00 | 0.00 | 0.00 | 32 | 1018.3 |
| 20260503205339 | 82 | 200 | 8.0 | 13.0 | 0.00 | 0.00 | 0.00 | 31 | 1018.1 |
| 20260503204835 | 82 | 110 | 3.0 | 9.0 | 0.00 | 0.00 | 0.00 | 31 | 1018.4 |
| 20260503204332 | 81 | 245 | 2.0 | 9.0 | 0.00 | 0.00 | 0.00 | 31 | 1018.4 |
| 20260503203829 | 81 | 187 | 4.0 | 9.0 | 0.00 | 0.00 | 0.00 | 32 | 1018.7 |
| 20260503203326 | 81 | 54 | 1.0 | 14.0 | 0.00 | 0.00 | 0.00 | 33 | 1018.8 |
| 20260503202823 | 81 | 225 | 7.0 | 7.0 | 0.00 | 0.00 | 0.00 | 32 | 1018.8 |
| 20260503202321 | 81 | 179 | 2.0 | 9.0 | 0.00 | 0.00 | 0.00 | 32 | 1018.9 |
| 20260503201819 | 81 | 222 | 3.0 | 10.0 | 0.00 | 0.00 | 0.00 | 31 | 1019.1 |
| 20260503201315 | 81 | 351 | 2.0 | 12.0 | 0.00 | 0.00 | 0.00 | 33 | 1019.0 |
| 20260503200814 | 81 | 185 | 9.0 | 10.0 | 0.00 | 0.00 | 0.00 | 29 | 1019.1 |
| 20260503200309 | 81 | 212 | 6.0 | 8.0 | 0.00 | 0.00 | 0.00 | 31 | 1019.2 |
| 20260503195807 | 80 | 224 | 5.0 | 11.0 | 0.00 | 0.00 | 0.00 | 32 | 1019.2 |
| 20260503195304 | 81 | 199 | 8.0 | 10.0 | 0.00 | 0.00 | 0.00 | 29 | 1019.2 |
| 20260503194800 | 81 | 133 | 2.0 | 8.0 | 0.00 | 0.00 | 0.00 | 35 | 1019.4 |
| 20260503194256 | 80 | 216 | 13.0 | 14.0 | 0.00 | 0.00 | 0.00 | 32 | 1019.3 |
| 20260503193753 | 80 | 216 | 5.0 | 11.0 | 0.00 | 0.00 | 0.00 | 33 | 1019.3 |
| 20260503193249 | 81 | 187 | 4.0 | 13.0 | 0.00 | 0.00 | 0.00 | 34 | 1019.7 |
| 20260503192745 | 80 | 212 | 9.0 | 10.0 | 0.00 | 0.00 | 0.00 | 34 | 1019.6 |
| 20260503192240 | 81 | 235 | 5.0 | 10.0 | 0.00 | 0.00 | 0.00 | 33 | 1019.9 |
| 20260503191737 | 81 | 222 | 5.0 | 9.0 | 0.00 | 0.00 | 0.00 | 33 | 1019.8 |
| 20260503191234 | 80 | 194 | 9.0 | 13.0 | 0.00 | 0.00 | 0.00 | 32 | 1019.9 |
| 20260503190731 | 80 | 202 | 6.0 | 11.0 | 0.00 | 0.00 | 0.00 | 33 | 1019.9 |
| 20260503190227 | 80 | 217 | 7.0 | 13.0 | 0.00 | 0.00 | 0.00 | 33 | 1020.0 |
| 20260503185725 | 80 | 222 | 5.0 | 10.0 | 0.00 | 0.00 | 0.00 | 35 | 1020.0 |
| 20260503185220 | 80 | 255 | 5.0 | 7.0 | 0.00 | 0.00 | 0.00 | 36 | 1020.1 |
| 20260503184715 | 80 | 241 | 3.0 | 8.0 | 0.00 | 0.00 | 0.00 | 35 | 1020.0 |
| 20260503184211 | 80 | 262 | 3.0 | 11.0 | 0.00 | 0.00 | 0.00 | 35 | 1020.1 |
| 20260503183708 | 80 | 216 | 2.0 | 13.0 | 0.00 | 0.00 | 0.00 | 36 | 1020.2 |
| 20260503183205 | 79 | 232 | 6.0 | 12.0 | 0.00 | 0.00 | 0.00 | 35 | 1020.2 |
| 20260503182703 | 79 | 232 | 8.0 | 13.0 | 0.00 | 0.00 | 0.00 | 35 | 1020.5 |
| 20260503182202 | 80 | 218 | 6.0 | 12.0 | 0.00 | 0.00 | 0.00 | 35 | 1020.5 |
| 20260503181657 | 79 | 225 | 7.0 | 11.0 | 0.00 | 0.00 | 0.00 | 36 | 1020.7 |
| 20260503181154 | 79 | 236 | 5.0 | 13.0 | 0.00 | 0.00 | 0.00 | 34 | 1020.6 |
| 20260503180651 | 79 | 221 | 9.0 | 13.0 | 0.00 | 0.00 | 0.00 | 36 | 1020.9 |
| 20260503180149 | 79 | 221 | 6.0 | 16.0 | 0.00 | 0.00 | 0.00 | 34 | 1020.9 |
| 20260503175646 | 79 | 247 | 14.0 | 14.0 | 0.00 | 0.00 | 0.00 | 34 | 1021.0 |
| 20260503175143 | 79 | 243 | 7.0 | 11.0 | 0.00 | 0.00 | 0.00 | 37 | 1021.0 |
| 20260503174640 | 78 | 268 | 9.0 | 11.0 | 0.00 | 0.00 | 0.00 | 38 | 1021.2 |
| 20260503174137 | 79 | 197 | 6.0 | 7.0 | 0.00 | 0.00 | 0.00 | 41 | 1021.5 |
| 20260503173632 | 79 | 189 | 7.0 | 10.0 | 0.00 | 0.00 | 0.00 | 39 | 1021.5 |
| 20260503173129 | 79 | 243 | 8.0 | 8.0 | 0.00 | 0.00 | 0.00 | 40 | 1021.5 |
| 20260503172626 | 79 | 207 | 3.0 | 7.0 | 0.00 | 0.00 | 0.00 | 39 | 1021.6 |
| 20260503172124 | 78 | 252 | 6.0 | 10.0 | 0.00 | 0.00 | 0.00 | 43 | 1021.5 |
| 20260503171620 | 77 | 244 | 4.0 | 10.0 | 0.00 | 0.00 | 0.00 | 43 | 1021.7 |
| 20260503171117 | 77 | 208 | 8.0 | 13.0 | 0.00 | 0.00 | 0.00 | 42 | 1021.8 |
| 20260503170614 | 77 | 204 | 6.0 | 10.0 | 0.00 | 0.00 | 0.00 | 42 | 1021.8 |
| 20260503170110 | 77 | 247 | 6.0 | 12.0 | 0.00 | 0.00 | 0.00 | 42 | 1021.9 |
| 20260503150959 | 72 | 245 | 4.0 | 9.0 | 0.00 | 0.00 | 0.00 | 49 | 1022.3 |
| 20260503150456 | 71 | 246 | 1.0 | 7.0 | 0.00 | 0.00 | 0.00 | 51 | 1022.1 |